Karauylkeldy

Kazakhstan     48˚42′07″N   55˚53′18″E
temp.,
°C
wind,
m/s
gust,
m/s
humid.,
%
clouds,
%
prec.,
mm/h
press.,
hPa
HPBL,
m
1 december, tue
tue123:00−11˚e713870 0.0 1046291
02:00−12˚e612870 0.0 1045272
05:00−13˚e712890 0.0 1046272
08:00−13˚e713850 0.0 1044275
11:00−12˚e711820 0.0 1044311
14:00−11˚e710790 0.0 1043346
17:00−12˚e611820 0.0 1042319
20:00−14˚e612850 0.0 1042271
2 december, wed
wed223:00−15˚e610870 0.0 1041258
02:00−15˚e59890 0.0 1041242
05:00−15˚e59880 0.0 1041206
08:00−16˚ene59870 0.0 1040211
11:00−14˚e58820 0.0 1040236
14:00−12˚ene45800 0.0 1039249
17:00−13˚ene46900 0.0 1038176
20:00−15˚ene47920 0.0 1039153
3 december, thu
thu323:00−15˚ene47900 0.0 1039145
02:00−15˚ne35900 0.0 1039109
05:00−16˚ne35910 0.0 1039117
08:00−17˚ne47910 0.0 1039157
11:00−15˚ne57830 0.0 1039233
14:00−12˚ne46820 0.0 1039250
17:00−13˚nne47890 0.0 1039189
20:00−14˚nne48880 0.0 1038167
4 december, fri
fri423:00−14˚nne46860 0.0 1039128
02:00−14˚nne46850 0.0 1039104
05:00−14˚nne46840 0.0 1039114
08:00−14˚nne47830 0.0 1039115
11:00−11˚ne58750 0.0 1039220
14:00−9˚ne46720 0.0 1039239
17:00−11˚nne34830 0.0 103971
20:00−12˚ne46820 0.0 1040107
5 december, sat
sat523:00−13˚ene46820 0.0 104097
02:00−14˚ene46810 0.0 1040104
05:00−14˚ene44810 0.0 104081
08:00−14˚ene46800 0.0 1040104
11:00−12˚ene48720 0.0 1040206
14:00−10˚ene46720 0.0 1040247
17:00−12˚ene34820 0.0 103979
20:00−13˚ne46810 0.0 1039100